Regional Weather Roundup
Issued by NWS

Home | Current Version | Previous Version | Text Only | Print | Product List | Glossary Off
Versions: 1 2 3 4 5 6 7 8 9 10 11 12 13 14 15 16 17 18 19 20 21 22 23 24 25 26 27 28 29 30 31 32 33 34 35 36 37 38 39 40 41 42 43 44 45 46 47 48 49 50

000
ASUS45 KBOI 210610
RWRID
WEATHER ROUNDUP FOR IDAHO
NATIONAL WEATHER SERVICE BOISE ID
1200 AM MDT THU AUG 21 2014

NOTE: "FAIR" INDICATES FEW OR NO CLOUDS BELOW 12000 FEET
WITH NO SIGNIFICANT WEATHER AND/OR OBSTRUCTIONS TO VISIBILITY

IDZ012-014-210700-
SOUTHWEST IDAHO


CITY           SKY/WX    TMP DP  RH WIND       PRES   REMARKS
BOISE          MOCLDY    74  47  38 W3        29.84R
CALDWELL       MOCLDY    70  48  46 W8        29.86R
MOUNTAIN HOME  CLOUDY    74  50  43 SE9       29.88R
$$

IDZ016-017-210700-
SOUTHCENTRAL IDAHO


CITY           SKY/WX    TMP DP  RH WIND       PRES   REMARKS
BURLEY         CLOUDY    63  54  72 NW7       29.96R
JEROME         CLOUDY    63  54  72 NE8       29.94S
TWIN FALLS     LGT RAIN  67  54  63 NE7       29.95R
$$

IDZ019>023-210700-
SOUTHEAST IDAHO


CITY           SKY/WX    TMP DP  RH WIND       PRES   REMARKS
IDAHO FALLS    CLOUDY    59  54  83 NE15      30.02R
POCATELLO      CLOUDY    56  54  93 NW6       29.99R
REXBURG        LGT RAIN  55  52  89 E6        30.05R
$$

IDZ006-010-011-018-031-032-210700-
CENTRAL IDAHO MOUNTAINS


CITY           SKY/WX    TMP DP  RH WIND       PRES   REMARKS
MCCALL         MOCLDY    58  48  69 N8        29.97S
HAILEY         CLOUDY    63  50  63 S8        30.01R
STANLEY          N/A     50  44  80 CALM      30.07R
SALMON         CLOUDY    57  54  88 SE6       30.01R
CHALLIS        CLOUDY    57  51  80 NW5       30.01S
$$

IDZ002-004-006-007-026-210700-
NORTHERN IDAHO


CITY           SKY/WX    TMP DP  RH WIND       PRES   REMARKS
LEWISTON       PTCLDY    69  40  34 S8        29.86R
LOWELL           N/A     65  59  81 CALM      29.87R
COEUR D`ALENE  PTCLDY    59  52  77 NE7       29.91R
MULLAN PASS    MOCLDY    52  44  74 CALM      30.04S
$$


USA.gov is the U.S. government's official web portal to all federal, state and local government web resources and services.